| time (UTC) | temp C | wind direction | speed KPH | gust KPH | rain 1hr cm | rain 24hr cm | rain mn cm | humidity % | barometer mb |
| 20260508065308 | 23 | 97 | 0.0 | 16.1 | 0.00 | 0.10 | 0.10 | 80 | 1018.9 |
| 20260508064808 | 23 | 73 | 1.6 | 20.9 | 0.00 | 0.10 | 0.10 | 80 | 1018.9 |
| 20260508064308 | 23 | 119 | 6.4 | 20.9 | 0.00 | 0.10 | 0.10 | 80 | 1018.8 |
| 20260508063808 | 23 | 82 | 6.4 | 20.9 | 0.00 | 0.10 | 0.10 | 80 | 1019.0 |
| 20260508063308 | 23 | 73 | 6.4 | 20.9 | 0.00 | 0.10 | 0.10 | 80 | 1018.8 |
| 20260508062807 | 23 | 78 | 3.2 | 17.7 | 0.00 | 0.10 | 0.10 | 80 | 1018.9 |
| 20260508062307 | 23 | 69 | 6.4 | 17.7 | 0.00 | 0.10 | 0.10 | 80 | 1019.0 |
| 20260508061807 | 23 | 55 | 6.4 | 14.5 | 0.00 | 0.10 | 0.10 | 80 | 1018.7 |
| 20260508061538 | 23 | 77 | 11.3 | 14.5 | 0.00 | 0.10 | 0.10 | 79 | 1018.8 |
| 20260508061039 | 23 | 96 | 9.7 | 24.1 | 0.00 | 0.10 | 0.10 | 79 | 1018.7 |
| 20260508060308 | 23 | 48 | 0.0 | 24.1 | 0.00 | 0.10 | 0.10 | 79 | 1018.7 |
| 20260508055807 | 23 | 98 | 1.6 | 16.1 | 0.00 | 0.10 | 0.10 | 79 | 1018.6 |
| 20260508055307 | 23 | 63 | 11.3 | 14.5 | 0.00 | 0.10 | 0.10 | 79 | 1018.5 |
| 20260508055029 | 23 | 90 | 4.8 | 16.1 | 0.00 | 0.10 | 0.10 | 79 | 1018.5 |
| 20260508054903 | 23 | 90 | 0.0 | 16.1 | 0.00 | 0.10 | 0.10 | 79 | 1018.4 |
| 20260508053756 | 23 | 61 | 8.0 | 12.9 | 0.00 | 0.10 | 0.10 | 79 | 1018.5 |
| 20260508053256 | 23 | 86 | 4.8 | 16.1 | 0.00 | 0.10 | 0.10 | 79 | 1018.5 |
| 20260508052756 | 23 | 97 | 9.7 | 16.1 | 0.00 | 0.10 | 0.10 | 79 | 1018.4 |
| 20260508052526 | 23 | 93 | 8.0 | 17.7 | 0.00 | 0.10 | 0.10 | 79 | 1018.1 |
| 20260508051756 | 23 | 110 | 0.0 | 17.7 | 0.00 | 0.10 | 0.10 | 79 | 1018.4 |
| 20260508051256 | 23 | 43 | 0.0 | 14.5 | 0.00 | 0.10 | 0.10 | 78 | 1018.2 |
| 20260508050755 | 23 | 67 | 8.0 | 16.1 | 0.00 | 0.10 | 0.10 | 78 | 1018.1 |
| 20260508050244 | 23 | 100 | 8.0 | 16.1 | 0.00 | 0.10 | 0.10 | 78 | 1018.2 |
| 20260508045744 | 24 | 52 | 3.2 | 12.9 | 0.00 | 0.10 | 0.10 | 78 | 1018.1 |
| 20260508045515 | 24 | 103 | 0.0 | 17.7 | 0.00 | 0.10 | 0.10 | 77 | 1018.3 |
| 20260508044743 | 24 | 77 | 1.6 | 17.7 | 0.00 | 0.10 | 0.10 | 78 | 1017.9 |
| 20260508044246 | 24 | 85 | 1.6 | 17.7 | 0.00 | 0.10 | 0.10 | 77 | 1017.9 |
| 20260508044014 | 24 | 108 | 4.8 | 17.7 | 0.00 | 0.10 | 0.10 | 77 | 1017.8 |
| 20260508043232 | 24 | 18 | 0.0 | 16.1 | 0.00 | 0.10 | 0.10 | 77 | 1017.9 |
| 20260508042731 | 24 | 89 | 0.0 | 12.9 | 0.00 | 0.10 | 0.10 | 76 | 1018.0 |
| 20260508042232 | 24 | 90 | 0.0 | 14.5 | 0.00 | 0.10 | 0.10 | 76 | 1018.0 |
| 20260508041731 | 24 | 71 | 0.0 | 17.7 | 0.00 | 0.10 | 0.10 | 75 | 1017.7 |
| 20260508041231 | 24 | 101 | 1.6 | 17.7 | 0.00 | 0.10 | 0.10 | 76 | 1017.7 |
| 20260508041003 | 24 | 72 | 6.4 | 14.5 | 0.00 | 0.10 | 0.10 | 74 | 1017.5 |
| 20260508040231 | 24 | 102 | 4.8 | 14.5 | 0.00 | 0.10 | 0.10 | 74 | 1017.6 |
| 20260508035731 | 25 | 66 | 0.0 | 14.5 | 0.00 | 0.10 | 0.10 | 74 | 1017.6 |
| 20260508035219 | 24 | 121 | 4.8 | 14.5 | 0.00 | 0.10 | 0.10 | 73 | 1017.6 |
| 20260508034719 | 24 | 94 | 0.0 | 12.9 | 0.00 | 0.10 | 0.10 | 72 | 1017.7 |
| 20260508034452 | 24 | 90 | 0.0 | 14.5 | 0.00 | 0.10 | 0.10 | 72 | 1017.6 |
| 20260508033950 | 24 | 99 | 0.0 | 16.1 | 0.00 | 0.10 | 0.10 | 72 | 1017.6 |
| 20260508033219 | 25 | 66 | 0.0 | 16.1 | 0.00 | 0.10 | 0.10 | 71 | 1017.6 |
| 20260508032720 | 25 | 94 | 0.0 | 16.1 | 0.00 | 0.10 | 0.10 | 72 | 1017.6 |
| 20260508032219 | 25 | 64 | 11.3 | 17.7 | 0.00 | 0.10 | 0.10 | 73 | 1017.3 |
| 20260508031720 | 25 | 89 | 6.4 | 17.7 | 0.00 | 0.10 | 0.10 | 71 | 1017.5 |
| 20260508031220 | 25 | 105 | 1.6 | 14.5 | 0.00 | 0.10 | 0.10 | 70 | 1017.4 |
| 20260508030719 | 25 | 97 | 0.0 | 14.5 | 0.00 | 0.10 | 0.10 | 71 | 1017.5 |
| 20260508030219 | 25 | 90 | 9.7 | 16.1 | 0.00 | 0.10 | 0.10 | 71 | 1017.3 |
| 20260508025952 | 25 | 91 | 0.0 | 16.1 | 0.00 | 0.10 | 0.10 | 72 | 1017.3 |
| 20260508025220 | 25 | 94 | 1.6 | 16.1 | 0.00 | 0.10 | 0.10 | 73 | 1017.3 |
| 20260508024720 | 25 | 108 | 0.0 | 16.1 | 0.00 | 0.10 | 0.10 | 72 | 1017.3 |
| 20260508024220 | 25 | 81 | 3.2 | 16.1 | 0.00 | 0.10 | 0.10 | 70 | 1017.3 |
| 20260508023719 | 25 | 55 | 6.4 | 14.5 | 0.00 | 0.10 | 0.10 | 71 | 1017.3 |
| 20260508023451 | 25 | 136 | 0.0 | 17.7 | 0.00 | 0.10 | 0.10 | 72 | 1017.4 |
| 20260508022719 | 25 | 14 | 0.0 | 17.7 | 0.00 | 0.10 | 0.10 | 72 | 1017.2 |
| 20260508022219 | 25 | 67 | 9.7 | 17.7 | 0.00 | 0.10 | 0.10 | 72 | 1017.5 |
| 20260508021950 | 25 | 84 | 3.2 | 16.1 | 0.00 | 0.10 | 0.10 | 71 | 1017.5 |
| 20260508021219 | 25 | 24 | 0.0 | 16.1 | 0.00 | 0.10 | 0.10 | 73 | 1017.2 |
| 20260508020951 | 25 | 68 | 6.4 | 17.7 | 0.00 | 0.10 | 0.10 | 71 | 1017.5 |
| 20260508020220 | 25 | 85 | 12.9 | 17.7 | 0.00 | 0.10 | 0.10 | 70 | 1017.3 |
| 20260508015719 | 25 | 87 | 0.0 | 17.7 | 0.00 | 0.10 | 0.10 | 72 | 1017.5 |
| 20260508015220 | 26 | 75 | 9.7 | 17.7 | 0.00 | 0.10 | 0.10 | 70 | 1017.5 |
| 20260508014951 | 26 | 97 | 0.0 | 17.7 | 0.00 | 0.10 | 0.10 | 70 | 1017.5 |
| 20260508014220 | 26 | 89 | 0.0 | 17.7 | 0.00 | 0.10 | 0.10 | 70 | 1017.3 |
| 20260508013720 | 26 | 104 | 6.4 | 16.1 | 0.00 | 0.10 | 0.10 | 70 | 1017.3 |
| 20260508013221 | 26 | 68 | 9.7 | 16.1 | 0.00 | 0.10 | 0.10 | 70 | 1017.6 |
| 20260508012725 | 25 | 61 | 0.0 | 20.9 | 0.10 | 0.10 | 0.10 | 73 | 1017.8 |
| 20260508012719 | 26 | 53 | 6.4 | 20.9 | 0.00 | 0.10 | 0.10 | 71 | 1017.7 |
| 20260508011724 | 26 | 64 | 14.5 | 17.7 | 0.10 | 0.10 | 0.10 | 70 | 1017.8 |
| 20260508011232 | 26 | 53 | 8.0 | 17.7 | 0.10 | 0.10 | 0.10 | 71 | 1018.0 |
| 20260508010720 | 26 | 74 | 8.0 | 17.7 | 0.10 | 0.10 | 0.10 | 68 | 1018.0 |
| 20260508010221 | 26 | 46 | 0.0 | 17.7 | 0.10 | 0.10 | 0.10 | 70 | 1017.8 |
| 20260508005945 | 26 | 55 | 9.7 | 17.7 | 0.10 | 0.10 | 0.10 | 69 | 1018.0 |
| 20260508005158 | 26 | 100 | 0.0 | 16.1 | 0.10 | 0.10 | 0.10 | 70 | 1018.0 |
| 20260508004658 | 26 | 25 | 11.3 | 17.7 | 0.10 | 0.10 | 0.10 | 70 | 1018.1 |
| 20260508004652 | 26 | 59 | 3.2 | 17.7 | 0.10 | 0.10 | 0.10 | 70 | 1018.1 |
| 20260508003641 | 26 | 43 | 6.4 | 17.7 | 0.10 | 0.10 | 0.10 | 71 | 1018.2 |
| 20260508003137 | 26 | 54 | 0.0 | 17.7 | 0.10 | 0.10 | 0.10 | 70 | 1018.2 |
| 20260508002623 | 26 | 54 | 1.6 | 17.7 | 0.08 | 0.08 | 0.10 | 70 | 1018.2 |
| 20260508002354 | 26 | 32 | 8.0 | 17.7 | 0.00 | 0.00 | 0.00 | 71 | 1018.3 |
| 20260508001854 | 26 | 80 | 6.4 | 20.9 | 0.00 | 0.00 | 0.00 | 70 | 1018.2 |
| 20260508001123 | 26 | 38 | 6.4 | 20.9 | 0.00 | 0.00 | 0.00 | 70 | 1018.4 |
| 20260508000622 | 26 | 75 | 1.6 | 20.9 | 0.00 | 0.00 | 0.00 | 72 | 1018.4 |
| 20260508000123 | 26 | 62 | 6.4 | 20.9 | 0.00 | 0.00 | 0.00 | 70 | 1018.3 |
| 20260507235855 | 26 | 52 | 4.8 | 20.9 | 0.00 | 0.00 | 0.00 | 69 | 1018.4 |
| 20260507235354 | 26 | 86 | 6.4 | 20.9 | 0.00 | 0.00 | 0.00 | 70 | 1018.4 |
| 20260507234622 | 26 | 10 | 6.4 | 17.7 | 0.00 | 0.00 | 0.00 | 70 | 1018.4 |
| 20260507234122 | 26 | 72 | 9.7 | 20.9 | 0.00 | 0.00 | 0.00 | 72 | 1018.4 |
| 20260507233623 | 26 | 64 | 9.7 | 20.9 | 0.00 | 0.00 | 0.00 | 71 | 1018.3 |
| 20260507233123 | 26 | 60 | 8.0 | 20.9 | 0.00 | 0.00 | 0.00 | 71 | 1018.6 |
| 20260507232854 | 26 | 46 | 6.4 | 22.5 | 0.00 | 0.00 | 0.00 | 70 | 1018.4 |
| 20260507232123 | 26 | 44 | 8.0 | 22.5 | 0.00 | 0.00 | 0.00 | 73 | 1018.5 |
| 20260507231854 | 26 | 32 | 1.6 | 22.5 | 0.00 | 0.00 | 0.00 | 72 | 1018.3 |
| 20260507231124 | 26 | 30 | 3.2 | 22.5 | 0.00 | 0.00 | 0.00 | 71 | 1018.4 |
| 20260507230853 | 26 | 81 | 0.0 | 16.1 | 0.00 | 0.00 | 0.00 | 71 | 1018.2 |
| 20260507230123 | 26 | 65 | 6.4 | 20.9 | 0.00 | 0.00 | 0.00 | 70 | 1018.6 |
| 20260507225622 | 26 | 50 | 14.5 | 20.9 | 0.00 | 0.00 | 0.00 | 68 | 1018.7 |
| 20260507225123 | 26 | 52 | 8.0 | 20.9 | 0.00 | 0.00 | 0.00 | 70 | 1018.8 |
| 20260507224623 | 26 | 99 | 3.2 | 20.9 | 0.00 | 0.00 | 0.00 | 72 | 1018.7 |
| 20260507224123 | 26 | 59 | 12.9 | 22.5 | 0.00 | 0.00 | 0.00 | 73 | 1018.9 |
| 20260507223623 | 26 | 34 | 6.4 | 22.5 | 0.00 | 0.00 | 0.00 | 70 | 1018.9 |
| 20260507223123 | 26 | 55 | 6.4 | 17.7 | 0.00 | 0.00 | 0.00 | 71 | 1018.9 |
| 20260507222624 | 26 | 86 | 3.2 | 17.7 | 0.00 | 0.00 | 0.00 | 72 | 1019.2 |
| 20260507222123 | 26 | 65 | 11.3 | 22.5 | 0.00 | 0.00 | 0.00 | 72 | 1019.0 |
| 20260507221622 | 26 | 30 | 9.7 | 22.5 | 0.00 | 0.00 | 0.00 | 72 | 1019.0 |
| 20260507221123 | 26 | 82 | 12.9 | 24.1 | 0.00 | 0.00 | 0.00 | 72 | 1018.8 |
| 20260507220623 | 26 | 67 | 11.3 | 17.7 | 0.00 | 0.00 | 0.00 | 73 | 1019.2 |
| 20260507220123 | 26 | 52 | 1.6 | 17.7 | 0.00 | 0.00 | 0.00 | 73 | 1019.2 |
| 20260507215622 | 26 | 85 | 4.8 | 17.7 | 0.00 | 0.00 | 0.00 | 72 | 1019.2 |
| 20260507215124 | 26 | 76 | 9.7 | 20.9 | 0.00 | 0.00 | 0.00 | 72 | 1019.2 |
| 20260507214623 | 26 | 34 | 3.2 | 20.9 | 0.00 | 0.00 | 0.00 | 72 | 1019.3 |
| 20260507214355 | 26 | 45 | 12.9 | 20.9 | 0.00 | 0.00 | 0.00 | 72 | 1019.2 |
| 20260507213623 | 26 | 33 | 3.2 | 22.5 | 0.00 | 0.00 | 0.00 | 72 | 1019.4 |
| 20260507213122 | 26 | 60 | 14.5 | 22.5 | 0.00 | 0.00 | 0.00 | 71 | 1019.4 |
| 20260507212622 | 26 | 61 | 16.1 | 20.9 | 0.00 | 0.00 | 0.00 | 71 | 1019.4 |
| 20260507212123 | 26 | 73 | 0.0 | 20.9 | 0.00 | 0.00 | 0.00 | 72 | 1019.4 |
| 20260507211624 | 26 | 75 | 0.0 | 20.9 | 0.00 | 0.00 | 0.00 | 71 | 1019.5 |
| 20260507211123 | 26 | 78 | 4.8 | 20.9 | 0.00 | 0.00 | 0.00 | 72 | 1019.3 |
| 20260507210622 | 25 | 78 | 0.0 | 17.7 | 0.00 | 0.00 | 0.00 | 72 | 1019.7 |
| 20260507210122 | 25 | 81 | 3.2 | 17.7 | 0.00 | 0.00 | 0.00 | 73 | 1019.5 |
| 20260507205622 | 25 | 86 | 1.6 | 17.7 | 0.00 | 0.00 | 0.00 | 72 | 1019.7 |
| 20260507205122 | 25 | 75 | 0.0 | 22.5 | 0.00 | 0.00 | 0.00 | 72 | 1019.7 |
| 20260507204622 | 25 | 46 | 12.9 | 22.5 | 0.00 | 0.00 | 0.00 | 73 | 1019.6 |
| 20260507204122 | 26 | 122 | 8.0 | 20.9 | 0.00 | 0.00 | 0.00 | 72 | 1019.9 |
| 20260507203623 | 25 | 62 | 12.9 | 20.9 | 0.00 | 0.00 | 0.00 | 73 | 1019.8 |
| 20260507203123 | 25 | 62 | 0.0 | 17.7 | 0.00 | 0.00 | 0.00 | 74 | 1019.7 |
| 20260507202623 | 25 | 56 | 6.4 | 17.7 | 0.00 | 0.00 | 0.00 | 74 | 1019.7 |
| 20260507202123 | 25 | 85 | 6.4 | 16.1 | 0.00 | 0.00 | 0.00 | 74 | 1019.7 |
| 20260507201853 | 25 | 60 | 0.0 | 16.1 | 0.00 | 0.00 | 0.00 | 75 | 1019.5 |
| 20260507201110 | 25 | 39 | 4.8 | 14.5 | 0.00 | 0.00 | 0.00 | 74 | 1019.9 |
| 20260507200610 | 25 | 61 | 6.4 | 16.1 | 0.00 | 0.00 | 0.00 | 74 | 1019.6 |
| 20260507200111 | 25 | 61 | 6.4 | 16.1 | 0.00 | 0.00 | 0.00 | 73 | 1019.8 |
| 20260507195843 | 25 | 62 | 4.8 | 17.7 | 0.00 | 0.00 | 0.00 | 73 | 1020.0 |
| 20260507195110 | 25 | 53 | 1.6 | 17.7 | 0.00 | 0.00 | 0.00 | 75 | 1019.9 |
| 20260507194610 | 25 | 35 | 9.7 | 17.7 | 0.00 | 0.00 | 0.00 | 75 | 1019.8 |
| 20260507194110 | 25 | 96 | 0.0 | 17.7 | 0.00 | 0.00 | 0.00 | 74 | 1019.8 |
| 20260507193830 | 25 | 61 | 4.8 | 16.1 | 0.00 | 0.00 | 0.00 | 74 | 1019.7 |
| 20260507193047 | 25 | 109 | 0.0 | 17.7 | 0.00 | 0.00 | 0.00 | 75 | 1019.6 |
| 20260507192547 | 25 | 79 | 4.8 | 14.5 | 0.00 | 0.00 | 0.00 | 75 | 1019.8 |
| 20260507192034 | 25 | 62 | 1.6 | 17.7 | 0.00 | 0.00 | 0.00 | 75 | 1019.9 |
| 20260507191523 | 25 | 42 | 6.4 | 17.7 | 0.00 | 0.00 | 0.00 | 74 | 1019.9 |
| 20260507191023 | 25 | 69 | 0.0 | 17.7 | 0.00 | 0.00 | 0.00 | 75 | 1019.8 |
| 20260507190511 | 25 | 92 | 0.0 | 17.7 | 0.00 | 0.00 | 0.00 | 74 | 1019.7 |
| 20260507190011 | 25 | 48 | 0.0 | 17.7 | 0.00 | 0.00 | 0.00 | 75 | 1019.6 |
| 20260507185511 | 24 | 62 | 0.0 | 16.1 | 0.00 | 0.00 | 0.00 | 74 | 1019.6 |
| 20260507185011 | 25 | 50 | 6.4 | 20.9 | 0.00 | 0.00 | 0.00 | 74 | 1019.6 |
| 20260507184511 | 24 | 98 | 1.6 | 20.9 | 0.00 | 0.00 | 0.00 | 75 | 1019.8 |
| 20260507184010 | 24 | 46 | 6.4 | 20.9 | 0.00 | 0.00 | 0.00 | 75 | 1019.5 |
| 20260507183510 | 24 | 98 | 12.9 | 20.9 | 0.00 | 0.00 | 0.00 | 75 | 1019.5 |
| 20260507183010 | 24 | 68 | 0.0 | 16.1 | 0.00 | 0.00 | 0.00 | 76 | 1019.4 |
| 20260507182741 | 25 | 71 | 6.4 | 16.1 | 0.00 | 0.00 | 0.00 | 75 | 1019.7 |
| 20260507182011 | 24 | 70 | 3.2 | 17.7 | 0.00 | 0.00 | 0.00 | 75 | 1019.4 |
| 20260507181741 | 24 | 32 | 8.0 | 17.7 | 0.00 | 0.00 | 0.00 | 76 | 1019.6 |
| 20260507181242 | 24 | 55 | 0.0 | 16.1 | 0.00 | 0.00 | 0.00 | 76 | 1019.4 |
| 20260507180741 | 24 | 114 | 6.4 | 16.1 | 0.00 | 0.00 | 0.00 | 77 | 1019.3 |
| 20260507180010 | 23 | 74 | 6.4 | 14.5 | 0.00 | 0.00 | 0.00 | 77 | 1019.1 |
| 20260507175510 | 23 | 93 | 0.0 | 14.5 | 0.00 | 0.00 | 0.00 | 77 | 1019.3 |
| 20260507175011 | 23 | 49 | 4.8 | 12.9 | 0.00 | 0.00 | 0.00 | 78 | 1019.5 |
| 20260507174741 | 23 | 60 | 3.2 | 20.9 | 0.00 | 0.00 | 0.00 | 78 | 1019.1 |
| 20260507174011 | 23 | 55 | 6.4 | 20.9 | 0.00 | 0.00 | 0.00 | 78 | 1019.4 |
| 20260507173511 | 23 | 81 | 0.0 | 12.9 | 0.00 | 0.00 | 0.00 | 79 | 1019.3 |
| 20260507173011 | 23 | 51 | 0.0 | 14.5 | 0.00 | 0.00 | 0.00 | 78 | 1019.3 |
| 20260507172511 | 23 | 60 | 0.0 | 14.5 | 0.00 | 0.00 | 0.00 | 78 | 1019.2 |
| 20260507172011 | 23 | 64 | 0.0 | 16.1 | 0.00 | 0.00 | 0.00 | 77 | 1019.3 |
| 20260507171510 | 23 | 98 | 9.7 | 16.1 | 0.00 | 0.00 | 0.00 | 79 | 1019.2 |
| 20260507171012 | 23 | 69 | 0.0 | 14.5 | 0.00 | 0.00 | 0.00 | 81 | 1019.0 |
| 20260507170742 | 22 | 93 | 3.2 | 14.5 | 0.00 | 0.00 | 0.00 | 83 | 1018.9 |
| 20260507170010 | 22 | 49 | 0.0 | 0.0 | 0.00 | 0.00 | 0.00 | 89 | 1019.2 |
| 20260507165742 | 21 | 271 | 0.0 | 0.0 | 0.00 | 0.00 | 0.00 | 89 | 1019.0 |
| 20260507165242 | 21 | 272 | 0.0 | 0.0 | 0.00 | 0.00 | 0.00 | 89 | 1018.6 |
| 20260507164510 | 21 | 271 | 0.0 | 0.0 | 0.00 | 0.00 | 0.00 | 89 | 1018.7 |
| 20260507163959 | 21 | 272 | 0.0 | 0.0 | 0.00 | 0.00 | 0.00 | 89 | 1018.7 |
| 20260507163730 | 21 | 272 | 0.0 | 0.0 | 0.00 | 0.00 | 0.00 | 89 | 1018.7 |
| 20260507163000 | 20 | 271 | 0.0 | 0.0 | 0.00 | 0.00 | 0.00 | 89 | 1018.6 |
| 20260507162458 | 20 | 271 | 0.0 | 0.0 | 0.00 | 0.00 | 0.00 | 89 | 1018.2 |
| 20260507162230 | 20 | 271 | 0.0 | 0.0 | 0.00 | 0.00 | 0.00 | 89 | 1018.6 |
| 20260507161458 | 20 | 273 | 0.0 | 0.0 | 0.00 | 0.00 | 0.00 | 89 | 1018.0 |
| 20260507161229 | 20 | 272 | 0.0 | 0.0 | 0.00 | 0.00 | 0.00 | 89 | 1018.2 |
| 20260507160459 | 20 | 272 | 0.0 | 0.0 | 0.00 | 0.00 | 0.00 | 89 | 1018.0 |
| 20260507160218 | 20 | 272 | 0.0 | 0.0 | 0.00 | 0.00 | 0.00 | 89 | 1018.2 |
| 20260507155435 | 20 | 272 | 0.0 | 0.0 | 0.00 | 0.00 | 0.00 | 89 | 1018.1 |
| 20260507155212 | 20 | 272 | 0.0 | 0.0 | 0.00 | 0.00 | 0.00 | 89 | 1018.1 |
| 20260507154935 | 20 | 273 | 0.0 | 0.0 | 0.00 | 0.00 | 0.00 | 89 | 1017.8 |
| 20260507153935 | 20 | 272 | 0.0 | 0.0 | 0.00 | 0.00 | 0.00 | 89 | 1017.8 |
| 20260507153434 | 20 | 272 | 0.0 | 0.0 | 0.00 | 0.00 | 0.00 | 89 | 1017.9 |
| 20260507152934 | 20 | 272 | 0.0 | 0.0 | 0.00 | 0.00 | 0.00 | 89 | 1017.9 |
| 20260507152434 | 20 | 272 | 0.0 | 0.0 | 0.00 | 0.00 | 0.00 | 89 | 1017.9 |
| 20260507151935 | 20 | 272 | 0.0 | 0.0 | 0.00 | 0.00 | 0.00 | 89 | 1017.8 |
| 20260507151423 | 20 | 271 | 0.0 | 0.0 | 0.00 | 0.00 | 0.00 | 89 | 1017.6 |
| 20260507150924 | 20 | 272 | 0.0 | 0.0 | 0.00 | 0.00 | 0.00 | 89 | 1017.6 |
| 20260507150424 | 20 | 272 | 0.0 | 0.0 | 0.00 | 0.00 | 0.00 | 89 | 1017.5 |
| 20260507145910 | 20 | 272 | 0.0 | 0.0 | 0.00 | 0.00 | 0.00 | 88 | 1017.4 |
| 20260507145641 | 20 | 272 | 0.0 | 0.0 | 0.00 | 0.00 | 0.00 | 88 | 1017.6 |
| 20260507145142 | 20 | 271 | 0.0 | 0.0 | 0.00 | 0.00 | 0.00 | 88 | 1017.5 |
| 20260507144410 | 20 | 271 | 0.0 | 0.0 | 0.00 | 0.00 | 0.00 | 88 | 1017.4 |
| 20260507143911 | 20 | 272 | 0.0 | 0.0 | 0.00 | 0.00 | 0.00 | 88 | 1017.4 |
| 20260507143411 | 20 | 272 | 0.0 | 0.0 | 0.00 | 0.00 | 0.00 | 88 | 1017.1 |
| 20260507142911 | 20 | 272 | 0.0 | 0.0 | 0.00 | 0.00 | 0.00 | 88 | 1017.5 |
| 20260507142411 | 20 | 272 | 0.0 | 0.0 | 0.00 | 0.00 | 0.00 | 88 | 1017.4 |
| 20260507141911 | 20 | 272 | 0.0 | 0.0 | 0.00 | 0.00 | 0.00 | 88 | 1017.2 |
| 20260507141411 | 20 | 272 | 0.0 | 0.0 | 0.00 | 0.00 | 0.00 | 88 | 1017.6 |
| 20260507140911 | 20 | 271 | 0.0 | 0.0 | 0.00 | 0.00 | 0.00 | 88 | 1017.5 |
| 20260507140411 | 20 | 272 | 0.0 | 0.0 | 0.00 | 0.00 | 0.00 | 88 | 1017.4 |
| 20260507135911 | 20 | 272 | 0.0 | 0.0 | 0.00 | 0.00 | 0.00 | 88 | 1017.4 |
| 20260507135411 | 20 | 271 | 0.0 | 0.0 | 0.00 | 0.00 | 0.00 | 88 | 1017.5 |
| 20260507134910 | 20 | 271 | 0.0 | 0.0 | 0.00 | 0.00 | 0.00 | 88 | 1017.4 |
| 20260507134410 | 20 | 271 | 0.0 | 0.0 | 0.00 | 0.00 | 0.00 | 88 | 1017.2 |
| 20260507133910 | 20 | 272 | 0.0 | 0.0 | 0.00 | 0.00 | 0.00 | 88 | 1017.4 |
| 20260507133410 | 20 | 271 | 0.0 | 0.0 | 0.00 | 0.00 | 0.00 | 88 | 1017.4 |
| 20260507132910 | 20 | 271 | 0.0 | 0.0 | 0.00 | 0.00 | 0.00 | 87 | 1017.1 |
| 20260507132406 | 20 | 271 | 0.0 | 0.0 | 0.00 | 0.00 | 0.00 | 87 | 1017.3 |
| 20260507132132 | 20 | 276 | 0.0 | 0.0 | 0.00 | 0.00 | 0.00 | 87 | 1017.2 |
| 20260507132006 | 21 | 275 | 0.0 | 0.0 | 0.00 | 0.00 | 0.00 | 87 | 1017.4 |
| 20260507130900 | 21 | 275 | 0.0 | 0.0 | 0.00 | 0.00 | 0.00 | 87 | 1017.5 |
| 20260507130402 | 21 | 275 | 0.0 | 0.0 | 0.00 | 0.00 | 0.00 | 87 | 1017.5 |
| 20260507125901 | 21 | 277 | 0.0 | 0.0 | 0.00 | 0.00 | 0.00 | 87 | 1017.5 |
| 20260507125402 | 21 | 277 | 0.0 | 0.0 | 0.00 | 0.00 | 0.00 | 87 | 1017.7 |
| 20260507124901 | 21 | 277 | 0.0 | 0.0 | 0.00 | 0.00 | 0.00 | 87 | 1017.8 |
| 20260507124400 | 21 | 277 | 0.0 | 0.0 | 0.00 | 0.00 | 0.00 | 87 | 1017.6 |
| 20260507123901 | 21 | 277 | 0.0 | 0.0 | 0.00 | 0.00 | 0.00 | 87 | 1017.4 |
| 20260507123401 | 21 | 278 | 0.0 | 0.0 | 0.00 | 0.00 | 0.00 | 87 | 1017.8 |
| 20260507123352 | 21 | 278 | 0.0 | 0.0 | 0.00 | 0.00 | 0.00 | 87 | 1018.0 |
| 20260507122349 | 21 | 284 | 0.0 | 0.0 | 0.00 | 0.00 | 0.00 | 87 | 1017.9 |
| 20260507121849 | 21 | 284 | 0.0 | 0.0 | 0.00 | 0.00 | 0.00 | 87 | 1017.8 |
| 20260507121325 | 21 | 284 | 0.0 | 0.0 | 0.00 | 0.00 | 0.00 | 87 | 1018.0 |
| 20260507120824 | 21 | 284 | 0.0 | 0.0 | 0.00 | 0.00 | 0.00 | 87 | 1017.9 |
| 20260507120324 | 21 | 284 | 0.0 | 0.0 | 0.00 | 0.00 | 0.00 | 87 | 1018.0 |
| 20260507120044 | 21 | 284 | 0.0 | 0.0 | 0.00 | 0.00 | 0.00 | 87 | 1017.9 |
| 20260507115313 | 21 | 284 | 0.0 | 0.0 | 0.00 | 0.00 | 0.00 | 87 | 1018.0 |
| 20260507114814 | 21 | 319 | 0.0 | 0.0 | 0.00 | 0.00 | 0.00 | 87 | 1018.2 |
| 20260507114313 | 21 | 8 | 0.0 | 0.0 | 0.00 | 0.00 | 0.00 | 87 | 1018.0 |
| 20260507113813 | 21 | 254 | 0.0 | 0.0 | 0.00 | 0.00 | 0.00 | 87 | 1018.1 |
| 20260507113543 | 21 | 28 | 0.0 | 0.0 | 0.00 | 0.00 | 0.00 | 87 | 1018.3 |
| 20260507112813 | 21 | 8 | 0.0 | 0.0 | 0.00 | 0.00 | 0.00 | 86 | 1018.2 |
| 20260507112313 | 21 | 165 | 0.0 | 0.0 | 0.00 | 0.00 | 0.00 | 86 | 1018.3 |
| 20260507111812 | 21 | 165 | 0.0 | 0.0 | 0.00 | 0.00 | 0.00 | 86 | 1018.3 |
| 20260507111312 | 21 | 165 | 0.0 | 0.0 | 0.00 | 0.00 | 0.00 | 86 | 1018.3 |
| 20260507110812 | 21 | 165 | 0.0 | 0.0 | 0.00 | 0.00 | 0.00 | 86 | 1018.3 |
| 20260507110313 | 21 | 165 | 0.0 | 0.0 | 0.00 | 0.00 | 0.00 | 86 | 1018.5 |
| 20260507105813 | 21 | 164 | 0.0 | 0.0 | 0.00 | 0.00 | 0.00 | 85 | 1018.5 |
| 20260507105545 | 21 | 164 | 0.0 | 0.0 | 0.00 | 0.00 | 0.00 | 85 | 1018.6 |
| 20260507104813 | 21 | 164 | 0.0 | 0.0 | 0.00 | 0.00 | 0.00 | 85 | 1018.7 |
| 20260507104313 | 21 | 164 | 0.0 | 0.0 | 0.00 | 0.00 | 0.00 | 85 | 1018.4 |
| 20260507104046 | 21 | 164 | 0.0 | 0.0 | 0.00 | 0.00 | 0.00 | 85 | 1018.6 |
| 20260507103312 | 21 | 164 | 0.0 | 0.0 | 0.00 | 0.00 | 0.00 | 85 | 1018.6 |
| 20260507102812 | 21 | 164 | 0.0 | 0.0 | 0.00 | 0.00 | 0.00 | 85 | 1018.7 |
| 20260507102313 | 21 | 164 | 0.0 | 0.0 | 0.00 | 0.00 | 0.00 | 85 | 1018.5 |
| 20260507101813 | 21 | 164 | 0.0 | 0.0 | 0.00 | 0.00 | 0.00 | 85 | 1018.9 |
| 20260507101312 | 21 | 164 | 0.0 | 0.0 | 0.00 | 0.00 | 0.00 | 85 | 1018.9 |
| 20260507100814 | 21 | 164 | 0.0 | 0.0 | 0.00 | 0.00 | 0.00 | 85 | 1018.8 |
| 20260507100312 | 21 | 164 | 0.0 | 0.0 | 0.00 | 0.00 | 0.00 | 85 | 1018.9 |
| 20260507095812 | 21 | 164 | 0.0 | 0.0 | 0.00 | 0.00 | 0.00 | 85 | 1018.9 |
| 20260507095312 | 21 | 164 | 0.0 | 0.0 | 0.00 | 0.00 | 0.00 | 85 | 1018.8 |
| 20260507094813 | 21 | 164 | 0.0 | 0.0 | 0.00 | 0.00 | 0.00 | 85 | 1018.9 |
| 20260507094301 | 21 | 164 | 0.0 | 0.0 | 0.00 | 0.00 | 0.00 | 85 | 1019.0 |
| 20260507093801 | 21 | 164 | 0.0 | 0.0 | 0.00 | 0.00 | 0.00 | 85 | 1019.0 |
| 20260507093300 | 21 | 163 | 0.0 | 0.0 | 0.00 | 0.00 | 0.00 | 85 | 1019.0 |
| 20260507092800 | 21 | 163 | 0.0 | 0.0 | 0.00 | 0.00 | 0.00 | 86 | 1019.2 |
| 20260507092532 | 21 | 164 | 0.0 | 0.0 | 0.00 | 0.00 | 0.00 | 85 | 1018.9 |
| 20260507091802 | 21 | 45 | 0.0 | 0.0 | 0.00 | 0.00 | 0.00 | 86 | 1019.2 |
| 20260507091301 | 21 | 276 | 0.0 | 0.0 | 0.00 | 0.00 | 0.00 | 85 | 1019.1 |
| 20260507090750 | 21 | 271 | 0.0 | 0.0 | 0.00 | 0.00 | 0.00 | 84 | 1019.2 |
| 20260507090520 | 21 | 264 | 0.0 | 0.0 | 0.00 | 0.00 | 0.00 | 84 | 1019.3 |
| 20260507085748 | 21 | 262 | 0.0 | 0.0 | 0.00 | 0.00 | 0.00 | 84 | 1019.4 |
| 20260507085248 | 21 | 262 | 0.0 | 0.0 | 0.00 | 0.00 | 0.00 | 84 | 1019.1 |
| 20260507084748 | 21 | 262 | 0.0 | 0.0 | 0.00 | 0.00 | 0.00 | 85 | 1019.1 |
| 20260507084520 | 21 | 278 | 0.0 | 0.0 | 0.00 | 0.00 | 0.00 | 85 | 1019.1 |
| 20260507083749 | 21 | 278 | 0.0 | 0.0 | 0.00 | 0.00 | 0.00 | 85 | 1019.3 |
| 20260507083507 | 21 | 270 | 0.0 | 0.0 | 0.00 | 0.00 | 0.00 | 85 | 1019.2 |
| 20260507082736 | 21 | 279 | 0.0 | 0.0 | 0.00 | 0.00 | 0.00 | 84 | 1019.3 |
| 20260507082237 | 21 | 280 | 0.0 | 0.0 | 0.00 | 0.00 | 0.00 | 84 | 1019.1 |
| 20260507081724 | 21 | 287 | 0.0 | 0.0 | 0.00 | 0.00 | 0.00 | 83 | 1018.9 |
| 20260507081457 | 21 | 302 | 0.0 | 0.0 | 0.00 | 0.00 | 0.00 | 83 | 1019.0 |
| 20260507080712 | 21 | 244 | 0.0 | 0.0 | 0.00 | 0.00 | 0.00 | 83 | 1018.9 |
| 20260507080213 | 21 | 244 | 0.0 | 0.0 | 0.00 | 0.00 | 0.00 | 83 | 1019.0 |
| 20260507075712 | 21 | 244 | 0.0 | 0.0 | 0.00 | 0.00 | 0.00 | 83 | 1019.2 |
| 20260507075213 | 21 | 244 | 0.0 | 0.0 | 0.00 | 0.00 | 0.00 | 83 | 1019.0 |
| 20260507074932 | 21 | 244 | 0.0 | 0.0 | 0.00 | 0.00 | 0.00 | 83 | 1019.0 |
| 20260507074201 | 21 | 244 | 0.0 | 0.0 | 0.00 | 0.00 | 0.00 | 82 | 1018.9 |
| 20260507073702 | 22 | 244 | 0.0 | 0.0 | 0.00 | 0.00 | 0.00 | 82 | 1019.2 |
| 20260507073149 | 22 | 244 | 0.0 | 0.0 | 0.00 | 0.00 | 0.00 | 82 | 1019.0 |
| 20260507072651 | 22 | 243 | 0.0 | 0.0 | 0.00 | 0.00 | 0.00 | 81 | 1019.0 |
| 20260507072126 | 22 | 243 | 0.0 | 0.0 | 0.00 | 0.00 | 0.00 | 81 | 1018.9 |
| 20260507071626 | 22 | 244 | 0.0 | 0.0 | 0.00 | 0.00 | 0.00 | 80 | 1018.9 |
| 20260507071356 | 22 | 244 | 0.0 | 0.0 | 0.00 | 0.00 | 0.00 | 80 | 1018.8 |
| 20260507070625 | 22 | 270 | 0.0 | 0.0 | 0.00 | 0.00 | 0.00 | 79 | 1018.7 |
| 20260507070356 | 22 | 270 | 0.0 | 0.0 | 0.00 | 0.00 | 0.00 | 79 | 1018.7 |
| 20260507065856 | 22 | 270 | 0.0 | 0.0 | 0.00 | 0.00 | 0.00 | 79 | 1018.7 |